Flag for South Africa Weather past 2 weeks in Port Elizabeth, South Africa

Now
68 °F

Passing clouds.


Feels Like: 68 °F
Forecast: 61 / 74 °F
Wind: 8 mph from North

Location: Port Elizabeth Airport

Current Time: Mar 29, 2015 at 9:43:50 AM

Latest Report: Mar 29, 2015 at 9:00 AM


Visibility: N/A

Pressure: 30.01 "Hg

Humidity: 69%

Dew point: 57 °F

Location of Port ElizabethLocation

Historic Weather in Port Elizabeth — Graph

°F

Port Elizabeth temperature yesterday

Maximum temperature yesterday: 70 °F (at 1:00 PM)
Minimum temperature yesterday: 57 °F (at 12:00 AM)
Average temperature yesterday: 64 °F

Past Weeks' High & Low Weather Summary

 TemperatureHumidityPressure
High81 °F (Mar 25, 1:00 PM)94% (Mar 15, 2:00 AM)30.24 "Hg (Mar 15, 2:00 AM)
Low55 °F (Mar 29, 6:00 AM)47% (Mar 16, 2:00 PM)29.65 "Hg (Mar 18, 3:00 PM)
Average68 °F78%29.98 "Hg
* Reported Mar 14 9:00 AM — Mar 29 8:00 AM, Port Elizabeth, Weather by CustomWeather, © 2015

Note: Actual official high and low records may vary slightly from our data, if they occured in-between our weather recording intervals... More about our weather records

Advertising

Port Elizabeth weather history for previous 24 hours

 ConditionsComfort  
Time TempWeatherWind HumidityBarometerVisibility
8:00 AM
Sun, Mar 29
63 °FPassing clouds.3 mph77%30.01 "HgN/A
7:00 AM55 °FSunny.2 mph82%29.98 "Hg10 mi
6:00 AM55 °FSunny.2 mph88%29.98 "Hg10 mi
5:00 AM59 °FClear.2 mph82%29.98 "Hg10 mi
4:00 AM63 °FClear.5 mph83%30.01 "Hg10 mi
3:00 AM61 °FClear.7 mph88%30.01 "Hg10 mi
2:00 AM63 °FClear.7 mph83%30.01 "Hg10 mi
1:00 AM63 °FClear.7 mph83%30.04 "Hg10 mi
12:00 AM63 °FClear.7 mph83%30.04 "Hg10 mi
9:00 PM
Sat, Mar 28
64 °FClear.10 mph78%30.09 "Hg10 mi
8:00 PM64 °FClear.12 mph83%30.07 "Hg10 mi
7:00 PM66 °FPassing clouds.12 mph73%30.07 "HgN/A
6:00 PM66 °FClear.13 mph73%30.07 "Hg10 mi
5:00 PM68 °FPassing clouds.13 mph73%30.07 "HgN/A
4:00 PM70 °FPassing clouds.16 mph64%30.07 "HgN/A
3:00 PM70 °FPassing clouds.15 mph64%30.07 "HgN/A
2:00 PM70 °FPassing clouds.17 mph69%30.09 "HgN/A
1:00 PM70 °FPassing clouds.14 mph64%30.12 "HgN/A
12:00 PM68 °FPassing clouds.14 mph73%30.12 "HgN/A
11:00 AM68 °FPassing clouds.12 mph73%30.15 "HgN/A
10:00 AM64 °FScattered clouds.8 mph83%30.15 "HgN/A
9:00 AM64 °FBroken clouds.6 mph88%30.18 "HgN/A
Weather by CustomWeather, © 2015

See weather overviewHow to use our weather pages